Find Starlink 4756

NORAD ID: 53826 Int'l Des: 2022-114 Owner: SPXS Country: US Constellation: starlink operational
LEOCIRCULAR

リアルタイム位置

3D地球を読み込み中...

Starlink 4756について

説明を読み込み中...

次回通過

Passes for default location (London). Set your location on the main map for personalized predictions.

高度履歴

Loading altitude history...

軌道要素

1 53826U 22114J 26122.22148248 -.00000735 00000-0 -28061-4 0 9996
2 53826 53.2194 63.7526 0001753 62.0046 298.1123 15.08832955200917
Epoch: May 2, 2026 • Age: 20 hours

現在のステータス

高度 557.7 km
速度 7.58 km/s
衛星直下点 -48.53°S, 53.9°E
打ち上げ日 Sep 19, 2022
運用期間 3.6 years
タイプ internet

技術仕様

分類 Payload
質量 305.00 kg
乾燥質量 290.00 kg
総質量 305.00 kg
長さ 0.20 m
直径 2.80 m
スパン 9.00 m
形状 Box + pan
製造者 SPXS
バスタイプ Starlink
フェーズステータス In Orbit
所有者/国 SPXS/US

Most Searched